GW1169 Weather Reports


Display with metric or nautical units.
time (UTC)temp
F
wind
direction
speed
MPH
gust
MPH
rain 1hr
in
rain 24hr
in
rain mn
in
humidity
%
barometer
mb
20260504150515 67 264 0.0 7.0 0.00 0.00 0.00 62 1001.3
20260504140516 70 228 3.0 11.0 0.00 0.00 0.00 60 1001.4
20260504130516 64 226 2.0 8.0 0.00 0.00 0.00 69 1002.0
20260504110536 59 0.0 0.0 0.00 0.00 0.00 75 1002.2
20260504100515 59 244 1.0 2.0 0.00 0.00 0.00 78 1002.5
20260504081515 61 0.0 0.0 0.00 0.00 0.00 76 1002.6
20260504080514 61 0.0 0.0 0.00 0.00 0.00 75 1002.4
20260504050536 66 18 0.0 1.0 0.00 0.00 0.00 60 1002.3
20260504045535 67 17 0.0 4.0 0.00 0.00 0.00 59 1002.2
20260504044515 67 269 0.0 3.0 0.00 0.00 0.00 59 1002.3
20260504043535 67 269 0.0 3.0 0.00 0.00 0.00 58 1002.4
20260504042515 68 238 0.0 2.0 0.00 0.00 0.00 57 1002.7
20260504041515 68 221 0.0 5.0 0.00 0.00 0.00 56 1003.0
20260504040515 68 231 0.0 2.0 0.00 0.00 0.00 57 1003.3
20260504035516 69 276 0.0 4.0 0.00 0.00 0.00 57 1002.7
20260504034515 69 225 1.0 7.0 0.00 0.00 0.00 57 1003.0
20260504033514 69 232 1.0 5.0 0.00 0.00 0.00 57 1003.4
20260504032515 69 227 0.0 4.0 0.00 0.00 0.00 57 1003.5
20260504031517 69 220 0.0 4.0 0.00 0.00 0.00 56 1003.6
20260504030517 70 0.0 0.0 0.00 0.00 0.00 55 1003.6
20260504025516 70 225 0.0 1.0 0.00 0.00 0.00 54 1003.5
20260504024515 71 225 0.0 1.0 0.00 0.00 0.00 54 1003.4
20260504023515 71 232 0.0 2.0 0.00 0.00 0.00 53 1003.5
20260504022536 71 244 0.0 1.0 0.00 0.00 0.00 52 1003.5
20260504021515 71 218 0.0 6.0 0.00 0.00 0.00 51 1003.4
20260504020515 71 0.0 3.0 0.00 0.00 0.00 52 1003.4
20260504015516 72 293 1.0 4.0 0.00 0.00 0.00 51 1003.3
20260504014535 72 1 1.0 3.0 0.00 0.00 0.00 51 1003.4
20260504013515 72 240 0.0 3.0 0.00 0.00 0.00 50 1002.9
20260504012515 73 232 0.0 3.0 0.00 0.00 0.00 49 1002.7
20260504011515 73 267 0.0 3.0 0.00 0.00 0.00 48 1002.6
20260504010515 73 219 0.0 3.0 0.00 0.00 0.00 48 1002.5
20260504005515 74 226 0.0 2.0 0.00 0.00 0.00 48 1002.6
20260504004636 74 244 0.0 4.0 0.00 0.00 0.00 47 1002.5
20260504003535 75 209 0.0 3.0 0.00 0.00 0.00 46 1002.6
20260504002515 75 234 0.0 3.0 0.00 0.00 0.00 45 1002.6
20260504001515 75 244 1.0 4.0 0.00 0.00 0.00 44 1002.6
20260504000515 76 224 1.0 5.0 0.00 0.00 0.00 43 1002.7
20260503235515 76 221 0.0 5.0 0.00 0.00 0.00 42 1002.8
20260503234514 76 229 0.0 4.0 0.00 0.00 0.00 42 1002.8
20260503233516 77 247 1.0 9.0 0.00 0.00 0.00 40 1002.8
20260503232516 77 242 1.0 5.0 0.00 0.00 0.00 39 1002.9
20260503231517 77 313 0.0 6.0 0.00 0.00 0.00 39 1003.0
20260503230516 77 214 1.0 7.0 0.00 0.00 0.00 39 1003.0
20260503225516 78 280 2.0 10.0 0.00 0.00 0.00 38 1003.1
20260503224516 78 235 1.0 6.0 0.00 0.00 0.00 38 1003.3
20260503223516 78 268 3.0 12.0 0.00 0.00 0.00 37 1003.4
20260503222536 78 257 3.0 13.0 0.00 0.00 0.00 35 1003.4
20260503221516 79 254 2.0 9.0 0.00 0.00 0.00 36 1003.5
20260503220516 79 263 3.0 11.0 0.00 0.00 0.00 36 1003.6
20260503215516 79 256 2.0 10.0 0.00 0.00 0.00 36 1003.8
20260503214516 79 283 2.0 8.0 0.00 0.00 0.00 35 1003.9
20260503213516 79 276 2.0 11.0 0.00 0.00 0.00 35 1003.9
20260503212516 79 323 2.0 8.0 0.00 0.00 0.00 36 1004.0
20260503211536 79 290 2.0 17.0 0.00 0.00 0.00 35 1004.2
20260503210516 79 256 2.0 15.0 0.00 0.00 0.00 36 1004.2
20260503205516 79 251 2.0 11.0 0.00 0.00 0.00 36 1004.2
20260503204516 78 266 2.0 15.0 0.00 0.00 0.00 35 1004.5
20260503203516 78 255 3.0 9.0 0.00 0.00 0.00 36 1004.6
20260503202515 77 251 3.0 14.0 0.00 0.00 0.00 36 1004.8
20260503201538 77 273 2.0 11.0 0.00 0.00 0.00 38 1005.1
20260503200536 77 251 3.0 15.0 0.00 0.00 0.00 37 1005.3
20260503195516 77 223 4.0 17.0 0.00 0.00 0.00 37 1005.5
20260503194535 76 259 3.0 13.0 0.00 0.00 0.00 37 1005.9
20260503193515 76 232 5.0 17.0 0.00 0.00 0.00 37 1006.1
20260503192515 76 231 2.0 10.0 0.00 0.00 0.00 38 1006.4
20260503191515 75 243 4.0 15.0 0.00 0.00 0.00 37 1006.5
20260503190515 75 207 2.0 10.0 0.00 0.00 0.00 38 1007.0
20260503185515 74 247 1.0 14.0 0.00 0.00 0.00 41 1007.2
20260503184535 73 241 3.0 18.0 0.00 0.00 0.00 39 1007.2
20260503183515 73 230 4.0 15.0 0.00 0.00 0.00 39 1007.5
20260503182515 73 228 3.0 17.0 0.00 0.00 0.00 39 1007.7
20260503181515 72 224 4.0 13.0 0.00 0.00 0.00 40 1008.0
20260503180515 72 232 5.0 18.0 0.00 0.00 0.00 38 1008.3
20260503175515 72 227 4.0 8.0 0.00 0.00 0.00 40 1008.8
20260503174515 71 242 4.0 11.0 0.00 0.00 0.00 41 1009.1
20260503173515 70 248 3.0 10.0 0.00 0.00 0.00 43 1009.5
20260503172515 69 233 4.0 13.0 0.00 0.00 0.00 42 1009.7
20260503171535 69 232 5.0 16.0 0.00 0.00 0.00 41 1010.1
20260503170515 68 246 5.0 13.0 0.00 0.00 0.00 42 1010.3